When you browse on this site, cookies collect data to enhance your experience and personalize the content and advertising you see.
Visit our Privacy Policy to learn more. By continuing to use the site, you agree to this use of cookies and data.

Stündliche Wetter Bamenda

Heute, 22 September, Dienstag

Zeit Temperatur Niederschläge Wind Luftdruck Luftfeuchtigkeit
00:00 +16°C° 0 mm 0 m/S 641 mmHg 97%
01:00 +18°C° 0 mm 1 m/S 641 mmHg 97%
02:00 +16°C° 0 mm 0 m/S 641 mmHg 97%
03:00 +16°C° 0 mm 0 m/S 641 mmHg 97%
04:00 +16°C° 0 mm 0 m/S 640 mmHg 97%
05:00 +16°C° 0 mm 0 m/S 641 mmHg 96%
06:00 +17°C° 0 mm 0 m/S 641 mmHg 95%
07:00 +17°C° 0 mm 0 m/S 642 mmHg 94%
08:00 +19°C° 0 mm 0 m/S 643 mmHg 87%
09:00 +21°C° 0 mm 0 m/S 643 mmHg 80%
10:00 +24°C° 0 mm 1 m/S 644 mmHg 73%
11:00 +25°C° 1.4 mm 1 m/S 644 mmHg 76%
12:00 +25°C° 1.4 mm 1 m/S 643 mmHg 78%
13:00 +25°C° 1.4 mm 1 m/S 642 mmHg 80%
14:00 +24°C° 1.8 mm 1 m/S 642 mmHg 82%
15:00 +24°C° 1.8 mm 1 m/S 641 mmHg 83%
16:00 +21°C° 1.8 mm 0 m/S 640 mmHg 85%
17:00 +22°C° 1.8 mm 1 m/S 640 mmHg 88%
18:00 +21°C° 1.8 mm 1 m/S 640 mmHg 90%
19:00 +20°C° 1.8 mm 1 m/S 640 mmHg 93%
20:00 +20°C° 0.8 mm 1 m/S 641 mmHg 93%
21:00 +19°C° 0.8 mm 1 m/S 642 mmHg 94%
22:00 +19°C° 0.8 mm 1 m/S 642 mmHg 95%
23:00 +19°C° 0.9 mm 1 m/S 642 mmHg 95%

Morgen, 23 September, Mittwoch

Zeit Temperatur Niederschläge Wind Luftdruck Luftfeuchtigkeit
00:00 +19°C° 0.9 mm 1 m/S 642 mmHg 95%
01:00 +19°C° 0.9 mm 1 m/S 642 mmHg 95%
02:00 +19°C° 0.8 mm 1 m/S 641 mmHg 95%
03:00 +19°C° 0.8 mm 1 m/S 641 mmHg 94%
04:00 +19°C° 0.8 mm 1 m/S 641 mmHg 94%
05:00 +19°C° 0.5 mm 1 m/S 641 mmHg 94%
06:00 +19°C° 0.5 mm 1 m/S 642 mmHg 94%
07:00 +19°C° 0.5 mm 1 m/S 642 mmHg 94%
08:00 +19°C° 0.1 mm 1 m/S 642 mmHg 93%
09:00 +18°C° 0.1 mm 0 m/S 643 mmHg 92%
10:00 +19°C° 0.1 mm 0 m/S 643 mmHg 91%
11:00 +20°C° 1.1 mm 0 m/S 643 mmHg 87%
12:00 +23°C° 1.1 mm 1 m/S 643 mmHg 83%
13:00 +25°C° 1.1 mm 1 m/S 642 mmHg 79%
14:00 +24°C° 1.6 mm 1 m/S 642 mmHg 81%
15:00 +24°C° 1.6 mm 1 m/S 641 mmHg 83%
16:00 +23°C° 1.6 mm 1 m/S 641 mmHg 84%
17:00 +22°C° 1.2 mm 1 m/S 641 mmHg 88%
18:00 +21°C° 1.2 mm 1 m/S 641 mmHg 91%
19:00 +18°C° 1.2 mm 0 m/S 641 mmHg 94%
20:00 +20°C° 1.1 mm 1 m/S 641 mmHg 94%
21:00 +19°C° 1.1 mm 1 m/S 642 mmHg 94%
22:00 +19°C° 1.1 mm 1 m/S 642 mmHg 94%
23:00 +19°C° 1 mm 1 m/S 642 mmHg 95%

übermorgen, 24 September, Donnerstag

Zeit Temperatur Niederschläge Wind Luftdruck Luftfeuchtigkeit
00:00 +19°C° 1 mm 1 m/S 642 mmHg 96%
01:00 +19°C° 1 mm 1 m/S 642 mmHg 96%
02:00 +19°C° 0.5 mm 1 m/S 641 mmHg 97%
03:00 +18°C° 0.5 mm 1 m/S 641 mmHg 97%
04:00 +18°C° 0.5 mm 1 m/S 640 mmHg 97%
05:00 +18°C° 0.1 mm 1 m/S 641 mmHg 97%
06:00 +18°C° 0.1 mm 1 m/S 641 mmHg 97%
07:00 +19°C° 0.1 mm 1 m/S 642 mmHg 97%
08:00 +19°C° 0.4 mm 1 m/S 642 mmHg 95%
09:00 +20°C° 0.4 mm 1 m/S 643 mmHg 93%
10:00 +19°C° 0.4 mm 0 m/S 643 mmHg 91%
11:00 +21°C° 0.7 mm 1 m/S 643 mmHg 91%
12:00 +21°C° 0.7 mm 1 m/S 642 mmHg 91%
13:00 +21°C° 0.7 mm 1 m/S 642 mmHg 91%
14:00 +21°C° 0.6 mm 1 m/S 641 mmHg 92%
15:00 +20°C° 0.6 mm 1 m/S 641 mmHg 93%
16:00 +20°C° 0.6 mm 1 m/S 640 mmHg 94%
17:00 +18°C° 0.3 mm 0 m/S 641 mmHg 95%
18:00 +17°C° 0.3 mm 0 m/S 641 mmHg 96%
19:00 +17°C° 0.3 mm 0 m/S 641 mmHg 96%
20:00 +16°C° 0 mm 0 m/S 641 mmHg 96%
21:00 +16°C° 0 mm 0 m/S 641 mmHg 96%
22:00 +16°C° 0 mm 0 m/S 642 mmHg 96%
23:00 +16°C° 0 mm 0 m/S 641 mmHg 96%

25 September, Freitag

Zeit Temperatur Niederschläge Wind Luftdruck Luftfeuchtigkeit
00:00 +16°C° 0 mm 0 m/S 641 mmHg 96%
01:00 +16°C° 0 mm 0 m/S 641 mmHg 96%
02:00 +16°C° 0 mm 0 m/S 641 mmHg 96%
03:00 +16°C° 0 mm 0 m/S 641 mmHg 96%
04:00 +16°C° 0 mm 0 m/S 640 mmHg 96%
05:00 +16°C° 0 mm 0 m/S 641 mmHg 95%
06:00 +16°C° 0 mm 0 m/S 641 mmHg 95%
07:00 +16°C° 0 mm 0 m/S 642 mmHg 94%
08:00 +18°C° 0.2 mm 0 m/S 642 mmHg 91%
09:00 +19°C° 0.2 mm 0 m/S 643 mmHg 88%
10:00 +20°C° 0.2 mm 0 m/S 644 mmHg 85%
11:00 +20°C° 1 mm 0 m/S 643 mmHg 85%
12:00 +20°C° 1 mm 0 m/S 642 mmHg 85%
13:00 +21°C° 1 mm 0 m/S 642 mmHg 86%
14:00 +20°C° 1.2 mm 0 m/S 641 mmHg 88%
15:00 +20°C° 1.2 mm 0 m/S 641 mmHg 90%
16:00 +19°C° 1.2 mm 0 m/S 640 mmHg 92%
17:00 +18°C° 1.4 mm 0 m/S 641 mmHg 94%
18:00 +18°C° 1.4 mm 0 m/S 641 mmHg 95%
19:00 +17°C° 1.4 mm 0 m/S 641 mmHg 97%
20:00 +17°C° 2.3 mm 0 m/S 641 mmHg 97%
21:00 +17°C° 2.3 mm 0 m/S 641 mmHg 97%
22:00 +17°C° 2.3 mm 0 m/S 642 mmHg 98%
23:00 +17°C° 1.8 mm 0 m/S 641 mmHg 98%

26 September, Samstag

Zeit Temperatur Niederschläge Wind Luftdruck Luftfeuchtigkeit
00:00 +16°C° 1.8 mm 0 m/S 641 mmHg 98%
01:00 +16°C° 1.8 mm 0 m/S 641 mmHg 98%
02:00 +18°C° 1.5 mm 1 m/S 641 mmHg 98%
03:00 +18°C° 1.5 mm 1 m/S 640 mmHg 98%
04:00 +18°C° 1.5 mm 1 m/S 640 mmHg 97%
05:00 +18°C° 0.4 mm 1 m/S 640 mmHg 97%
06:00 +18°C° 0.4 mm 1 m/S 641 mmHg 97%
07:00 +18°C° 0.4 mm 1 m/S 641 mmHg 97%
08:00 +19°C° 0.1 mm 1 m/S 641 mmHg 95%
09:00 +19°C° 0.1 mm 1 m/S 642 mmHg 93%
10:00 +18°C° 0.1 mm 0 m/S 642 mmHg 92%
11:00 +18°C° 0.4 mm 0 m/S 642 mmHg 91%
12:00 +18°C° 0.4 mm 0 m/S 641 mmHg 91%
13:00 +19°C° 0.4 mm 0 m/S 641 mmHg 91%
14:00 +20°C° 0.4 mm 1 m/S 641 mmHg 92%
15:00 +20°C° 0.4 mm 1 m/S 640 mmHg 93%
16:00 +20°C° 0.4 mm 1 m/S 640 mmHg 94%
17:00 +19°C° 0.1 mm 1 m/S 640 mmHg 95%
18:00 +19°C° 0.1 mm 1 m/S 640 mmHg 95%
19:00 +18°C° 0.1 mm 1 m/S 640 mmHg 96%
20:00 +18°C° 0 mm 1 m/S 640 mmHg 96%
21:00 +18°C° 0 mm 1 m/S 641 mmHg 96%
22:00 +18°C° 0 mm 1 m/S 641 mmHg 97%
23:00 +18°C° 0 mm 1 m/S 641 mmHg 97%

27 September, Sonntag

Zeit Temperatur Niederschläge Wind Luftdruck Luftfeuchtigkeit
00:00 +16°C° 0 mm 1 m/S 641 mmHg 97%
01:00 +16°C° 0 mm 1 m/S 640 mmHg 97%
02:00 +16°C° 0.2 mm 1 m/S 640 mmHg 96%
03:00 +16°C° 0.2 mm 1 m/S 640 mmHg 96%
04:00 +16°C° 0.2 mm 1 m/S 640 mmHg 96%
05:00 +16°C° 0.1 mm 1 m/S 640 mmHg 96%
06:00 +18°C° 0.1 mm 1 m/S 640 mmHg 96%
07:00 +18°C° 0.1 mm 1 m/S 640 mmHg 96%
08:00 +19°C° 0.1 mm 1 m/S 641 mmHg 91%
09:00 +21°C° 0.1 mm 1 m/S 642 mmHg 86%
10:00 +22°C° 0.1 mm 1 m/S 643 mmHg 82%
11:00 +23°C° 1.1 mm 1 m/S 642 mmHg 81%
12:00 +24°C° 1.1 mm 1 m/S 642 mmHg 80%
13:00 +25°C° 1.1 mm 1 m/S 642 mmHg 79%
14:00 +23°C° 1.4 mm 1 m/S 641 mmHg 83%
15:00 +20°C° 1.4 mm 0 m/S 640 mmHg 87%
16:00 +19°C° 1.4 mm 0 m/S 639 mmHg 92%
17:00 +18°C° 0.7 mm 0 m/S 639 mmHg 93%
18:00 +18°C° 0.7 mm 0 m/S 639 mmHg 94%
19:00 +19°C° 0.7 mm 1 m/S 639 mmHg 95%
20:00 +19°C° 0.3 mm 1 m/S 640 mmHg 95%
21:00 +18°C° 0.3 mm 1 m/S 640 mmHg 95%
22:00 +18°C° 0.3 mm 1 m/S 641 mmHg 96%
23:00 +18°C° 0 mm 1 m/S 641 mmHg 96%
Mehr zeigen